Regional Weather Roundup
Issued by NWS Sterling, VA

Home | Current Version | Previous Version | Text Only | Print | Product List | Glossary On
Versions: 1 2 3 4 5 6 7 8 9 10 11 12 13 14 15 16 17 18 19 20 21 22 23 24 25 26 27
000
ASUS41 KLWX 031611
RWRLWX

REGIONAL WEATHER ROUNDUP
NATIONAL WEATHER SERVICE BALTIMORE MD/WASHINGTON DC
1100 AM EST SAT DEC 03 2016

Note: "FAIR" indicates few or no clouds below 12,000 feet
with no significant weather and/or obstructions to visibility.
 TC=TEMPERATURE CELSIUS

 * =Non NWS site. Station does not report precipitation (e.g. rain,
    snow, etc.), thunder, or fog.

DCZ001-MDZ009-015-VAZ040>042-051-053>054-031700-
WASHINGTON METRO

CITY           SKY/WX    TMP DP  RH WIND       PRES   REMARKS
WASHINGTON NAT MOSUNNY   49  30  48 NW12G28   30.23F
DULLES         MOSUNNY   46  28  49 NW16G26   30.25S
ANDREWS AFB    SUNNY     47  28  47 NW20G30   30.20F
FT BELVOIR     SUNNY     48  27  44 NW16      30.23S
QUANTICO       PTSUNNY   49  27  42 N15G28    30.26R
COLLEGE PARK*  SUNNY     46  28  49 NW16G25   30.21F
LEESBURG*      CLOUDY    46  34  61 NW15G23   30.26F
GAITHERSBURG*  CLOUDY    45  27  49 W13G20    30.26F

$$

MDZ006>007-011-014-031700-
BALTIMORE METRO

CITY           SKY/WX    TMP DP  RH WIND       PRES   REMARKS
BWI AIRPORT    MOSUNNY   49  31  49 NW16G30   30.20S
MD SCIENCE CTR   N/A     48  28  46 MISG      30.20F
MARTIN STATE   CLOUDY    48  34  57 W16G23    30.21R
ANNAPOLIS      SUNNY     50  31  48 NW14G21   30.19F
FORT MEADE*    SUNNY     46  30  53 NW13G24   30.23F

$$

MDZ012-015-019>023-031700-
MARYLAND EASTERN SHORE

CITY           SKY/WX    TMP DP  RH WIND       PRES   REMARKS
OCEAN CITY     SUNNY     50  30  46 NW16G24   30.15S
SALISBURY      SUNNY     50  30  46 NW16G23   30.16F
BAY BRIDGE AP* SUNNY     48  30  49 NW18G26   30.19F
CAMBRIDGE*     SUNNY     46  32  57 NW16G23   30.19S
EASTON*        SUNNY     50  30  46 NW20G26   30.22S

$$

MDZ017>025-031700-
SOUTHERN MARYLAND

CITY           SKY/WX    TMP DP  RH WIND       PRES   REMARKS
PATUXENT RIVER MOSUNNY   48  28  46 NW17G25   30.21S
ST INIGOES     SUNNY     49  29  46 W16G23    30.21S
LEONARDTOWN*   SUNNY     46  28  49 NW15G23   30.22F

$$

MDZ003>005-031700-
NORTH CENTRAL MARYLAND

CITY           SKY/WX    TMP DP  RH WIND       PRES   REMARKS
FREDERICK*     PTSUNNY   45  32  61 NW14G21   30.26S
HAGERSTOWN APT CLOUDY    43  28  55 NW16      30.23R
WESTMINSTER*   CLOUDY    43  28  56 W17G25    30.19R

$$

MDZ501>502-031700-
WESTERN MARYLAND

CITY           SKY/WX    TMP DP  RH WIND       PRES   REMARKS
OAKLAND*         N/A     27  27 100 W10G17    30.20F WCI  17
CUMBERLAND*    NOT AVBL

$$

VAZ025>031-031700-
SHENANDOAH VALLEY

CITY           SKY/WX    TMP DP  RH WIND       PRES   REMARKS
WINCHESTER*    SUNNY     41  27  56 NW22G29   30.24F
FRONT ROYAL*   FAIR      45  30  57 NW8       30.24F
LURAY*         PTSUNNY   45  32  61 W9        30.25F
NEW MARKET*    FAIR      43  27  52 CALM      30.25S
STAUNTON*      PTSUNNY   42  28  56 W6        30.28S
WAYNESBORO*    FAIR      41  26  53 W8        30.27R

$$

WVZ021-048>050-054>055-031700-
EASTERN WEST VIRGINIA PANHANDLE

CITY           SKY/WX    TMP DP  RH WIND       PRES   REMARKS
MARTINSBURG    PTSUNNY   42  28  57 W14G23    30.25S
PETERSBURG*    PTSUNNY   43  30  59 W10G16    30.28S

$$

VAZ036>039-050-031700-
CENTRAL FOOTHILLS

CITY           SKY/WX    TMP DP  RH WIND       PRES   REMARKS
CHARLOTTESVILL MOSUNNY   48  28  46 VRB5      30.25S
CULPEPER*      SUNNY     48  30  51 N3        30.26F
ORANGE*          N/A     46  30  53 CALM      30.26F
GORDONSVILLE*  FAIR      47  29  51 W5        30.24S
WARRENTON*     FAIR      48  23  37 N16       30.25F

$$

VAZ055>057-031700-
NORTH AND CENTRAL PIEDMONT

CITY           SKY/WX    TMP DP  RH WIND       PRES   REMARKS
FREDERICKSBRG* MOSUNNY   48  31  51 NW13G20   30.25S
STAFFORD*      MOSUNNY   46  29  51 NW18      30.29S

$$

NCZ024-NYZ072-PAZ021-071-VAZ022-071-031700-
OTHER REGIONAL OBSERVATIONS

CITY           SKY/WX    TMP DP  RH WIND       PRES   REMARKS
NEW YORK CITY  PTSUNNY   44  24  45 NW12G23   30.05F
PHILADELPHIA   PTSUNNY   48  28  46 NW18G26   30.13S
PITTSBURGH     CLOUDY    38  30  73 W10       30.29F
ROANOKE        CLOUDY    41  25  53 NW10      30.31S
RALEIGH        MOSUNNY   48  27  44 N6        30.30F

$$

ANZ530>537-031700-
MARINE OBSERVATIONS

STATION/POSITION TIME  TEMP    WIND        PRES
                       AIR SEA DIR/SP/G
                 (UTC) (F)     (DEG/KT/KT) (MB)
THOMAS PT LIGHT  1600   47 48  300/ 19/ 26   N/A
BALT KEY BRIDGE  1548   46     280/ 21/ 25 1022.1F
COVE POINT       1548   45     340/ 21/ 25 1023.1S
LEWISETTA        1548   47 50  340/ 16/ 23 1022.9F
SOLOMONS ISLAND  1548   47 51  310/ 10/ 19   N/A
PINEY POINT      1548          330/ 22/ 25   N/A

$$





USA.gov is the U.S. government's official web portal to all federal, state and local government web resources and services.